STARLINK-33685, 63465

Orbit data source: Space-Track

STARLINK-33685, 63465 is a payload satellite owned by SpaceX/Seattle (US) in LEO that was launched on Sun, 06 Apr 2025 UTC via an FALCON 9 launch vehicle from the Air Force Eastern Test Range (AFETR). Payload-class satellites include a variety of spacecraft equipped with specific instruments for various scientific and technological missions. These include communications satellites like Starlink; space stations such as the ISS; scientific satellites like the Hubble; Earth observation satellites from companies like Planet Labs, Umbra, and HawkEye 360; GPS; miniature CubeSats for education and research; and military/defense satellites.

Loading next visibility...
Identifier
63465, 2025-070F
Orbit
LEO
Country
Flag of USUS
Related business
Manufacturer
SpaceX/Seattle
Mission
Operational Commercial Communications
Bus & Motor
STARLINK V2MO, Unknown motor
Mass
575 kg wet, ~530 kg dry
Launch date (UTC)
2025-04-06 (1 year ago)
Launch vehicle
FALCON 9
Launch site
Air Force Eastern Test Range (AFETR)
Object type
Payload
Rocket body
Debris
Shape & HBR
Box + 2 Pan, 17.7 m
Radar Cross Section
36.964 m², Large (>1 m²)

Expand to show TLE details & history
Last TLE update: 18 hours ago

TLE from 18 hours ago
0 STARLINK-33685
1 63465U 25070F   26169.37748209  .00017745  00000-0  65286-3 0  9996
2 63465  43.0028  51.3174 0001459 272.3763  87.6921 15.27577701 68372
Epoch: 2026-06-18T09:03Z
TLE epoch observation values (Epoch: 2026-06-18T09:03:34.452Z)
Latitude
-0.00007°
Longitude
8.8021°
Altitude
482.792 km
Speed
7.626 km/s
True Right ascension
03h 25m 16s
True Declination
0° 00' 00"
Sunlit
Object was in daylight at epoch
Visualization orbit readout
Latitude
Unknown
Longitude
Unknown
Altitude
Unknown
Speed
Unknown
Apparent Right ascension
Unknown
Apparent Declination
Unknown
Sunlit
N/A
Visualization observer readout
Local Sidereal Time
14:02:53
Azimuth
Unknown
Elevation
Unknown
Doppler factor
Unknown
Orbital elements
Apogee altitude
486.002 km
Perigee altitude
483.999 km
Semi-major axis
6,863.138 km
Eccentricity
0.00015
Inclination
43.0028°
RAAN
51.3174°
Arg. of periapsis
272.3763°
True anomaly
87.70881°
Mean anomaly
87.6921°
Eccentric anomaly
87.70045°
Mean motion
3.81732 °/min
Orbital period
94.31 mins
BSTAR
0.00065286
Loading maneuver chart data...
Computing Atmospheric mass density...
Loading historical data...
Loading historical data...
Loading historical data...
Loading historical data...
Loading historical data...
Loading historical data...
Loading historical data...

Documentation

Showing up to 5 results
|